[[{"header":{"parameterUnit":"m.s-1","parameterCategory":1,"la1":30.2991,"la2":30.254,"lo1":-89.0895,"lo2":-89.0444,"dy":0.0017,"dx":0.0017,"nx":28,"ny":28,"refTime":"2025-11-04T03:00:00:Z","depth":0,"parameterNumber":2,"parameterNumberName":"U-component_of_WINDS"},"data":[0,0,0,0,0,0,0,0,0,0,0,0,0,0,0,0,0,0,0,0,0,0,0,0,0,0,0,0,0,0,0,0,0,0,0,0,0,0,0,0,0,0,0,0,0,0,0,0,0,0,0,0,0,0,0,0,0,0,-0.1377,-0.1377,0,-0.1443,-0.1444,-0.1445,-0.1468,-0.1468,-0.1468,-0.1467,-0.1538,-0.154,-0.1542,0,0,0,0,0,0,0,0,0,0,0,0,0,-0.1271,-0.1273,-0.1376,-0.1377,-0.1378,-0.1443,-0.1444,-0.1445,-0.1468,-0.1468,-0.1467,-0.1467,-0.1537,-0.154,-0.1542,0,0,0,0,0,0,0,0,0,0,0,0,0,-0.1326,-0.1274,-0.1376,-0.1397,-0.14,-0.1443,-0.1444,-0.1445,-0.1468,-0.1468,-0.1467,-0.1467,-0.1537,-0.154,-0.1543,-0.157,0,0,-0.1553,-0.1554,0,0,0,0,0,0,0,0,-0.1322,-0.1329,-0.1394,-0.1396,-0.1399,-0.1447,-0.1433,-0.1487,-0.1468,-0.1442,-0.1467,-0.1467,-0.1508,-0.1514,-0.1527,-0.1574,-0.1577,-0.1553,-0.1555,-0.1556,-0.1557,0,0,0,0,0,0,0,-0.1319,-0.1327,-0.1403,-0.1394,-0.1398,-0.1404,-0.1412,-0.1443,-0.1477,-0.1445,-0.1446,-0.1454,-0.151,-0.1524,-0.1529,-0.1578,-0.1553,-0.1556,-0.1558,-0.1559,-0.1651,-0.1651,0,0,0,0,0,0,-0.1311,-0.1323,-0.1401,-0.1405,-0.1359,-0.1407,-0.1415,-0.1432,-0.1476,-0.1483,-0.1454,-0.1455,-0.1519,-0.1525,-0.1532,-0.1568,-0.1556,-0.1559,-0.1561,-0.165,-0.1651,-0.1652,0,0,0,0,0,0,-0.1309,-0.1318,-0.1398,-0.1365,-0.1375,-0.1409,-0.1428,-0.1433,-0.1448,-0.1484,-0.149,-0.1463,-0.1519,-0.1527,-0.1561,-0.157,-0.1561,-0.1563,-0.165,-0.1651,-0.1651,-0.1639,0,0,0,0,0,0,-0.1306,-0.1317,-0.1327,-0.1365,-0.1377,-0.1425,-0.1429,-0.1435,-0.1453,-0.1454,-0.1493,-0.1499,-0.1519,-0.1556,-0.1564,-0.1574,-0.1566,-0.1649,-0.165,-0.1651,-0.1639,-0.1639,-0.164,0,0,0,0,0,-0.1302,-0.1321,-0.1327,-0.1337,-0.1391,-0.1426,-0.1433,-0.1455,-0.1454,-0.1465,-0.1488,-0.1498,-0.1567,-0.1559,-0.1568,-0.158,-0.1649,-0.165,-0.1651,-0.1638,-0.1639,-0.164,0,0,0,0,0,0,-0.1285,-0.1327,-0.1334,-0.1366,-0.1392,-0.143,-0.1444,-0.1454,-0.1482,-0.1482,-0.1509,-0.1517,-0.1549,-0.1568,-0.1557,-0.1609,-0.1609,-0.1612,-0.1596,-0.1597,-0.1597,-0.1593,-0.1569,0,0,0,0,0,-0.1285,-0.1309,-0.1344,-0.137,-0.1382,-0.1411,-0.1427,-0.1441,-0.147,-0.1481,-0.1506,-0.1534,-0.1562,-0.1581,-0.1608,-0.1641,-0.165,-0.1654,-0.1654,-0.1654,-0.1657,-0.1677,-0.1679,-0.1655,-0.1655,-0.1655,0,0,-0.1285,-0.1311,-0.1325,-0.1367,-0.1389,-0.1414,-0.142,-0.1447,-0.1466,-0.1485,-0.1519,-0.1538,-0.1571,-0.1604,-0.162,-0.1621,-0.1666,-0.1656,-0.1656,-0.1659,-0.1678,-0.168,-0.1682,-0.1656,-0.1656,-0.1656,0,0,-0.1299,-0.1321,-0.1344,-0.1366,-0.1398,-0.1417,-0.1422,-0.1458,-0.1472,-0.1505,-0.152,-0.1544,-0.1592,-0.1615,-0.1633,-0.1654,-0.1666,-0.1663,-0.1666,-0.1685,-0.1687,-0.1688,-0.1697,-0.17,-0.1665,-0.1665,-0.1665,0,-0.1296,-0.1334,-0.1355,-0.1381,-0.1399,-0.1417,-0.1441,-0.1461,-0.1502,-0.1514,-0.1514,-0.1574,-0.1598,-0.1637,-0.1642,-0.1656,-0.1664,-0.1659,-0.1684,-0.1686,-0.1689,-0.1697,-0.1701,-0.1665,-0.1665,-0.1665,-0.1665,0,-0.1329,-0.1355,-0.137,-0.1408,-0.1428,-0.1453,-0.1478,-0.1496,-0.1508,-0.1527,-0.1562,-0.159,-0.1624,-0.1634,-0.1647,-0.1675,-0.1675,-0.1679,-0.1679,-0.169,-0.1699,-0.1702,-0.1664,-0.1664,-0.1664,-0.1664,0,0,-0.1336,-0.1384,-0.1389,-0.1407,-0.1443,-0.1465,-0.149,-0.1523,-0.1538,-0.1565,-0.1588,-0.1628,-0.1632,-0.1652,-0.1668,-0.1684,-0.17,-0.1686,-0.1687,-0.1689,-0.1735,-0.1732,-0.1736,-0.1707,-0.1708,-0.1708,-0.1733,0,-0.1356,-0.1402,-0.1421,-0.1459,-0.1484,-0.15,-0.1523,-0.1549,-0.1567,-0.1591,-0.1612,-0.164,-0.1643,-0.1655,-0.1672,-0.1695,-0.171,-0.1693,-0.173,-0.1731,-0.1723,-0.174,-0.1738,-0.1759,-0.1736,-0.1737,-0.1737,0,-0.1385,-0.1411,-0.1451,-0.1485,-0.1496,-0.1516,-0.1548,-0.1571,-0.16,-0.1612,-0.1634,-0.1649,-0.1677,-0.1674,-0.1715,-0.1703,-0.1719,-0.1733,-0.1734,-0.174,-0.1736,-0.1748,-0.1767,-0.177,-0.1742,-0.1742,-0.1742,0,-0.1387,-0.1433,-0.1463,-0.1477,-0.1517,-0.1531,-0.1548,-0.1577,-0.1595,-0.1623,-0.1635,-0.1666,-0.1683,-0.1707,-0.1729,-0.1725,-0.1768,-0.1767,-0.178,-0.178,-0.179,-0.1789,-0.1813,-0.1798,-0.1798,-0.1798,-0.1798,0,-0.1408,-0.1433,-0.1464,-0.1483,-0.1511,-0.1533,-0.156,-0.1579,-0.1604,-0.1627,-0.1643,-0.1665,-0.1692,-0.1718,-0.1735,-0.1767,-0.1774,-0.1786,-0.179,-0.1785,-0.1784,-0.1797,-0.1797,-0.1799,-0.1798,-0.1798,-0.1798,0,-0.1416,-0.1438,-0.1472,-0.1507,-0.1516,-0.1535,-0.1565,-0.1584,-0.1603,-0.1632,-0.164,-0.167,-0.17,-0.1724,-0.1765,-0.1777,-0.181,-0.1815,-0.18,-0.1803,-0.1815,-0.1814,-0.185,-0.1856,-0.1835,-0.1835,-0.1835,0,-0.1429,-0.1448,-0.1484,-0.15,-0.1517,-0.1543,-0.1562,-0.1584,-0.1603,-0.1637,-0.1653,-0.1684,-0.1711,-0.1759,-0.1785,-0.1815,-0.1822,-0.1832,-0.1827,-0.1821,-0.1824,-0.1823,-0.1825,-0.1833,-0.1833,-0.1833,-0.1833,0,-0.145,-0.146,-0.1485,-0.1514,-0.1536,-0.156,-0.1585,-0.1598,-0.1624,-0.1645,-0.1676,-0.1696,-0.1737,-0.1768,-0.1802,-0.1821,-0.1832,-0.1835,-0.184,-0.1835,-0.1827,-0.1833,-0.1803,-0.1834,-0.1834,-0.1834,-0.1834,-0.1834,-0.1462,-0.1479,-0.1508,-0.1536,-0.1556,-0.1579,-0.1599,-0.1619,-0.1645,-0.1679,-0.1691,-0.1723,-0.1752,-0.1798,-0.1817,-0.1843,-0.1844,-0.1851,-0.1853,-0.1855,-0.1855,-0.1821,-0.1849,-0.1849,-0.1849,-0.1849,-0.1849,0,-0.1484,-0.1503,-0.1528,-0.1562,-0.1584,-0.1591,-0.1619,-0.1637,-0.1665,-0.1691,-0.1716,-0.1752,-0.1783,-0.181,-0.1842,-0.1858,-0.1864,-0.1866,-0.1866,-0.187,-0.1852,-0.1845,-0.186,-0.186,-0.186,-0.186,-0.186,-0.186,-0.1499,-0.1529,-0.1542,-0.1584,-0.1602,-0.1633,-0.1649,-0.167,-0.1691,-0.173,-0.1755,-0.1772,-0.1799,-0.1833,-0.1861,-0.1869,-0.188,-0.1881,-0.189,-0.1873,-0.1871,-0.187,-0.1864,-0.1883,-0.1883,-0.1906,-0.1907,-0.1907]},{"header":{"parameterUnit":"m.s-1","parameterCategory":1,"la1":30.2991,"la2":30.254,"lo1":-89.0895,"lo2":-89.0444,"dy":0.0017,"dx":0.0017,"nx":28,"ny":28,"refTime":"2025-11-04T03:00:00:Z","depth":0,"parameterNumber":3,"parameterNumberName":"V-component_of_WINDS"},"data":[0,0,0,0,0,0,0,0,0,0,0,0,0,0,0,0,0,0,0,0,0,0,0,0,0,0,0,0,0,0,0,0,0,0,0,0,0,0,0,0,0,0,0,0,0,0,0,0,0,0,0,0,0,0,0,0,0,0,2.7236,2.7237,0,2.7275,2.7275,2.7275,2.724,2.7239,2.7237,2.7236,2.7272,2.7274,2.7276,0,0,0,0,0,0,0,0,0,0,0,0,0,2.713,2.7132,2.7236,2.7237,2.7237,2.7274,2.7275,2.7275,2.724,2.7239,2.7237,2.7235,2.7271,2.7274,2.7276,0,0,0,0,0,0,0,0,0,0,0,0,0,2.7173,2.7133,2.7236,2.7224,2.7224,2.7274,2.7275,2.7276,2.7241,2.7239,2.7236,2.7234,2.727,2.7273,2.7277,2.734,0,0,2.7287,2.7289,0,0,0,0,0,0,0,0,2.7171,2.7177,2.7226,2.7225,2.7225,2.725,2.7251,2.7297,2.7241,2.7234,2.7236,2.7233,2.7266,2.727,2.7281,2.7342,2.7343,2.7287,2.7289,2.7291,2.7292,0,0,0,0,0,0,0,2.7168,2.7175,2.7251,2.7226,2.7226,2.7216,2.722,2.7259,2.7261,2.7235,2.7232,2.7237,2.7265,2.7278,2.7282,2.7344,2.7287,2.729,2.7292,2.7294,2.7457,2.7459,0,0,0,0,0,0,2.7166,2.7173,2.725,2.7252,2.7192,2.722,2.7224,2.7244,2.7261,2.7261,2.7239,2.7236,2.7273,2.7278,2.7283,2.7357,2.7291,2.7294,2.7296,2.7454,2.7457,2.746,0,0,0,0,0,0,2.7164,2.7174,2.7249,2.7212,2.7221,2.7224,2.7247,2.7246,2.7259,2.7264,2.7264,2.7252,2.7272,2.7278,2.7326,2.7357,2.7296,2.7299,2.7452,2.7455,2.7458,2.7505,0,0,0,0,0,0,2.7161,2.7173,2.7198,2.7213,2.7223,2.7292,2.7249,2.7248,2.7265,2.7261,2.7276,2.7277,2.7271,2.7321,2.7329,2.7361,2.7301,2.7449,2.7453,2.7457,2.7501,2.751,2.7518,0,0,0,0,0,2.7158,2.7209,2.7199,2.7209,2.7254,2.7294,2.7299,2.7292,2.7268,2.7292,2.7296,2.7276,2.7354,2.7326,2.7335,2.7368,2.7447,2.7452,2.7457,2.7497,2.7508,2.7518,0,0,0,0,0,0,2.7196,2.7211,2.72,2.7258,2.7275,2.7288,2.7318,2.7304,2.7328,2.7322,2.7312,2.7316,2.7366,2.7372,2.7342,2.743,2.7396,2.7403,2.7423,2.7434,2.7442,2.7438,2.7304,0,0,0,0,0,2.7212,2.7244,2.7255,2.7305,2.7314,2.7315,2.7332,2.7325,2.7342,2.7348,2.7355,2.7372,2.7399,2.7417,2.7443,2.7503,2.7505,2.753,2.7539,2.7545,2.7551,2.7581,2.7592,2.7477,2.7477,2.7476,0,0,2.7243,2.7255,2.7276,2.7313,2.7325,2.7357,2.7321,2.7357,2.738,2.7353,2.7398,2.7405,2.7422,2.7475,2.7499,2.7482,2.7583,2.7552,2.7557,2.7559,2.7587,2.7598,2.7608,2.748,2.7479,2.7479,0,0,2.7317,2.733,2.7372,2.7386,2.7406,2.7406,2.7417,2.7432,2.7435,2.7481,2.7461,2.7489,2.7537,2.755,2.7563,2.7643,2.7625,2.7652,2.7694,2.7723,2.7732,2.774,2.7766,2.7776,2.7657,2.7658,2.7658,0,2.7353,2.7401,2.7396,2.7433,2.7449,2.7429,2.747,2.7484,2.7511,2.7521,2.7503,2.7563,2.7573,2.7628,2.7648,2.766,2.767,2.7648,2.7732,2.774,2.7747,2.7772,2.7782,2.7661,2.766,2.766,2.766,0,2.7444,2.7478,2.751,2.7537,2.7557,2.7597,2.7596,2.7617,2.7609,2.7611,2.7657,2.7669,2.7697,2.771,2.7703,2.7764,2.7753,2.7734,2.7698,2.7761,2.7784,2.7793,2.7665,2.7664,2.7663,2.7662,0,0,2.7539,2.7565,2.7576,2.7588,2.7609,2.7634,2.7673,2.7701,2.7718,2.7738,2.7768,2.7811,2.7793,2.7807,2.7801,2.7828,2.7888,2.7805,2.7805,2.7817,2.7954,2.7966,2.7977,2.7878,2.7879,2.7881,2.7951,0,2.7612,2.7679,2.7675,2.7738,2.7768,2.775,2.7783,2.7799,2.7803,2.7829,2.7832,2.7861,2.7837,2.7845,2.7871,2.7875,2.7914,2.787,2.7903,2.7905,2.7896,2.799,2.8003,2.8069,2.7961,2.7962,2.7963,0,2.7704,2.7728,2.7793,2.781,2.7822,2.7852,2.7877,2.7903,2.792,2.7921,2.7938,2.7928,2.7965,2.7932,2.7983,2.7953,2.7967,2.7971,2.7973,2.7973,2.7935,2.7989,2.809,2.8099,2.7978,2.7977,2.7976,0,2.7764,2.7813,2.7858,2.7869,2.789,2.7911,2.792,2.7936,2.7953,2.7975,2.7986,2.8012,2.8025,2.8045,2.8042,2.8018,2.8093,2.806,2.8092,2.8092,2.8106,2.8104,2.8207,2.812,2.812,2.812,2.812,0,2.7843,2.7883,2.7885,2.7912,2.7957,2.7953,2.7996,2.8003,2.8018,2.8045,2.8032,2.8058,2.8054,2.8079,2.8078,2.8118,2.8125,2.8125,2.8124,2.8125,2.8124,2.8131,2.8125,2.8122,2.8122,2.8121,2.8121,0,2.7915,2.7919,2.7966,2.7983,2.7988,2.802,2.8033,2.8058,2.8062,2.8097,2.8105,2.811,2.8139,2.8139,2.8173,2.8172,2.8221,2.8216,2.8215,2.8213,2.8244,2.824,2.8352,2.8366,2.8273,2.8274,2.8275,0,2.7964,2.7995,2.8015,2.8033,2.8044,2.8073,2.8091,2.8089,2.8107,2.813,2.8152,2.8181,2.8203,2.8252,2.8257,2.8283,2.8276,2.8314,2.828,2.8279,2.8273,2.827,2.8272,2.8319,2.832,2.8321,2.8322,0,2.8049,2.8049,2.8076,2.8103,2.8124,2.8145,2.8165,2.818,2.818,2.8201,2.8232,2.825,2.8285,2.8313,2.8338,2.8346,2.8333,2.8333,2.8341,2.8341,2.8338,2.8338,2.823,2.833,2.8329,2.8328,2.8328,2.8328,2.8109,2.8135,2.8153,2.8183,2.8198,2.8216,2.8241,2.8248,2.8274,2.8302,2.83,2.8333,2.835,2.8382,2.8393,2.8419,2.8405,2.8418,2.8421,2.8423,2.8425,2.8337,2.8424,2.8423,2.8423,2.8423,2.8423,0,2.8191,2.8202,2.823,2.8258,2.8281,2.827,2.829,2.831,2.834,2.8357,2.838,2.8415,2.8443,2.8451,2.8478,2.8496,2.8491,2.8503,2.85,2.8502,2.8437,2.8426,2.8507,2.8507,2.8507,2.8507,2.8507,2.8507,2.8236,2.8279,2.8281,2.8331,2.8342,2.8376,2.8388,2.8405,2.8418,2.8458,2.8481,2.8488,2.8501,2.8528,2.8552,2.8554,2.8563,2.8577,2.8576,2.8515,2.8506,2.8498,2.8487,2.858,2.858,2.8638,2.8639,2.8639]}]]